Location: Winthrop
(48.4780°N, 120.1850°W)
Time: 17:00:53
(UTC-07:00)

Explorer 7 - Pass Details

Date: 01 February 2023
Orbit: 478 x 657 km, 50.3° (Epoch: 30 March)

Event Time Altitude Azimuth Distance (km) Brightness Sun altitude
Rises 19:33:14 0° 282° (WNW) 2,932 11.8 -25.6°
Reaches altitude 10° 19:36:45 10° 254° (WSW) 2,047 10.6 -26.2°
Maximum altitude 19:38:52 13° 228° (SW) 1,866 10.0 -26.5°
Drops below altitude 10° 19:41:00 10° 201° (SSW) 2,064 9.9 -26.9°
Enters shadow 19:42:37 - 186° (S) 2,416 10.1 -27.1°
Sets 19:44:34 0° 174° (S) 2,979 - -27.4°
